This demonstration page uses our WeatherBlox Daily Observations layout. Learn more.

Hourly Observations for March 7, 2019

Temp ( °F °C ) Dew Point ( °F °C ) Humidity (%) Winds ( mph kmh ) Pressure ( in mb ) Visibility ( mi km ) Precip ( " mm )
12:15 am 00:15 Cloudy 25 -3.8 22 -5.3 89 89 ENE 13 20 30.18 1022 7 11.265408 0 0
12:35 am 00:35 Cloudy 25 -3.8 23 -5.2 90 90 ENE 17 28 30.18 1022 7 11.265408 0 0
12:55 am 00:55 Cloudy 25 -3.8 23 -5.2 90 90 ENE 16 26 30.18 1022 7 11.265408 0 0
1:15 am 01:15 Cloudy 25 -3.7 23 -5.1 90 90 ENE 17 28 30.18 1022 7 11.265408 0 0
1:35 am 01:35 Cloudy 26 -3.5 23 -5 89 89 ENE 16 26 30.18 1022 7 11.265408 0 0
1:55 am 01:55 Cloudy 26 -3.3 23 -4.9 89 89 ENE 14 22 30.18 1022 10 16.09344 0 0
2:15 am 02:15 Cloudy 26 -3.2 23 -4.9 88 88 ENE 14 22 30.18 1022 10 16.09344 0 0
2:35 am 02:35 Cloudy 26 -3.2 23 -4.8 89 89 ENE 15 24 30.18 1022 10 16.09344 0 0
2:55 am 02:55 Cloudy 26 -3.3 23 -4.9 89 89 E 15 24 30.18 1022 7 11.265408 0 0
3:15 am 03:15 Cloudy 26 -3.3 23 -4.8 90 90 ENE 15 24 30.18 1022 7 11.265408 0 0
3:35 am 03:35 Mostly Cloudy 26 -3.3 23 -4.8 90 90 E 18 30 30.12 1020 7 11.265408 0 0
3:55 am 03:55 Partly Cloudy 26 -3.3 23 -5 88 88 E 18 30 30.12 1020 10 16.09344 0 0
4:15 am 04:15 Mostly Cloudy 26 -3.2 23 -5 88 88 E 15 24 30.12 1020 10 16.09344 0 0
4:35 am 04:35 Cloudy 26 -3.2 23 -5 88 88 E 16 26 30.15 1021 10 16.09344 0 0
4:55 am 04:55 Cloudy 26 -3.2 23 -5 88 88 E 10 17 30.18 1022 10 16.09344 0 0
5:15 am 05:15 Cloudy 26 -3.3 23 -5 88 88 E 16 26 30.12 1020 10 16.09344 0 0
5:35 am 05:35 Cloudy 26 -3.2 23 -5 88 88 E 10 17 30.18 1022 10 16.09344 0 0
5:55 am 05:55 Cloudy 26 -3.5 23 -5.2 88 88 E 12 19 30.15 1021 10 16.09344 0 0
6:15 am 06:15 Cloudy 26 -3.5 23 -5.1 89 89 E 10 17 30.18 1022 10 16.09344 0 0
6:35 am 06:35 Mostly Cloudy 26 -3.5 23 -5 89 89 E 15 24 30.15 1021 7 11.265408 0 0
6:55 am 06:55 Partly Cloudy 25 -3.8 22 -5.3 89 89 E 13 20 30.15 1021 7 11.265408 0 0
7:15 am 07:15 Mostly Cloudy 25 -4 22 -5.5 89 89 E 9 15 30.18 1022 7 11.265408 0 0
7:35 am 07:35 Cloudy 26 -3.6 23 -5.1 89 89 E 10 17 30.18 1022 7 11.265408 0 0
7:55 am 07:55 Cloudy with Mist and Fog 26 -3.5 23 -5 89 89 E 10 17 30.18 1022 5 8.04672 0 0
8:15 am 08:15 Cloudy with Mist and Fog 26 -3.3 23 -4.9 89 89 E 14 22 30.15 1021 5 8.04672 0 0
8:35 am 08:35 Cloudy with Mist and Fog 26 -3.5 23 -5 89 89 E 13 20 30.15 1021 3 4.828032 0 0
8:55 am 08:55 Cloudy with Mist and Fog 26 -3.5 23 -4.9 90 90 E 12 19 30.18 1022 2 3.218688 0 0
9:15 am 09:15 Cloudy with Mist and Fog 26 -3.2 24 -4.7 90 90 E 9 15 30.18 1022 3 4.828032 0 0
9:35 am 09:35 Cloudy with Mist and Fog 27 -3 24 -4.6 89 89 E 10 17 30.18 1022 5 8.04672 0 0
9:55 am 09:55 Cloudy 27 -2.6 24 -4.6 86 86 E 12 19 30.18 1022 7 11.265408 0 0
10:15 am 10:15 Cloudy 28 -2.5 24 -4.7 85 85 E 10 17 30.18 1022 7 11.265408 0 0
10:35 am 10:35 Cloudy 28 -2.3 24 -4.6 84 84 E 9 15 30.18 1022 7 11.265408 0 0
10:55 am 10:55 Cloudy 28 -2.3 24 -4.6 84 84 E 12 19 30.18 1022 7 11.265408 0 0
11:15 am 11:15 Cloudy 28 -2.1 24 -4.4 84 84 E 12 19 30.18 1022 7 11.265408 0 0
11:35 am 11:35 Cloudy 28 -2 24 -4.3 84 84 E 13 20 30.12 1020 7 11.265408 0 0
11:55 am 11:55 Cloudy with Haze 29 -1.7 25 -4.1 84 84 E 14 22 30.12 1020 5 8.04672 0 0
12:15 pm 12:15 Cloudy with Mist and Fog 29 -1.7 25 -4 85 85 E 13 20 30.12 1020 4 6.437376 0 0
12:35 pm 12:35 Cloudy with Mist and Fog 28 -2.5 24 -4.4 87 87 ENE 12 19 30.15 1021 2.5 4.02336 0 0
12:55 pm 12:55 Cloudy with Mist and Fog 28 -2.5 25 -4.1 89 89 ENE 13 20 30.15 1021 3 4.828032 0 0
1:15 pm 13:15 Cloudy with Mist and Fog 28 -2.5 25 -4.1 89 89 E 13 20 30.09 1019 2.5 4.02336 0 0
1:35 pm 13:35 Cloudy with Mist and Fog 28 -2.5 25 -4.1 89 89 E 15 24 30.09 1019 2.5 4.02336 0 0
1:55 pm 13:55 Cloudy with Mist and Fog 28 -2.5 25 -4.1 89 89 E 13 20 30.09 1019 2.5 4.02336 0 0
2:15 pm 14:15 Cloudy with Mist and Fog 28 -2.5 25 -4 90 90 E 12 19 30.09 1019 2.5 4.02336 0 0
2:35 pm 14:35 Cloudy with Mist and Fog 28 -2.5 25 -4 90 90 ENE 13 20 30.09 1019 3 4.828032 0 0
2:55 pm 14:55 Cloudy with Mist and Fog 28 -2.5 25 -4 90 90 ENE 13 20 30.06 1018 3 4.828032 0 0
3:15 pm 15:15 Cloudy with Mist and Fog 28 -2.5 25 -4 90 90 E 13 20 30.09 1019 2.5 4.02336 0 0
3:35 pm 15:35 Cloudy with Mist and Fog 27 -2.8 24 -4.3 90 90 ENE 12 19 30.12 1020 2.5 4.02336 0 0
3:55 pm 15:55 Cloudy with Mist and Fog 26 -3.1 24 -4.5 90 90 ENE 12 19 30.12 1020 1.5 2.414016 0 0
4:15 pm 16:15 Cloudy with Mist and Fog 26 -3.2 24 -4.4 92 92 E 12 19 30.09 1019 1.25 2.01168 0 0
4:35 pm 16:35 Cloudy with Mist and Fog 26 -3.2 24 -4.3 92 92 E 12 19 30.09 1019 1.5 2.414016 0 0
4:55 pm 16:55 Cloudy with Mist and Fog 26 -3.1 24 -4.2 92 92 E 8 13 30.12 1020 2 3.218688 0 0
5:15 pm 17:15 Cloudy with Mist and Fog 26 -3.1 24 -4.2 92 92 E 13 20 30.12 1020 2.5 4.02336 0 0
5:35 pm 17:35 Cloudy with Mist and Fog 26 -3.2 24 -4.5 91 91 E 9 15 30.12 1020 2.5 4.02336 0 0
5:55 pm 17:55 Cloudy with Mist and Fog 26 -3.1 24 -4.3 92 92 E 10 17 30.12 1020 2.5 4.02336 0 0
6:15 pm 18:15 Cloudy with Mist and Fog 26 -3.1 24 -4.3 92 92 E 9 15 30.12 1020 3 4.828032 0 0
6:35 pm 18:35 Cloudy with Mist and Fog 26 -3.2 24 -4.5 91 91 ENE 9 15 30.12 1020 2.5 4.02336 0 0
6:55 pm 18:55 Cloudy with Mist and Fog 26 -3.2 24 -4.3 92 92 E 8 13 30.12 1020 3 4.828032 0 0
7:15 pm 19:15 Cloudy with Mist and Fog 26 -3.2 24 -4.3 92 92 E 8 13 30.12 1020 4 6.437376 0 0
7:35 pm 19:35 Cloudy with Mist and Fog 26 -3.1 24 -4.3 92 92 E 7 11 30.12 1020 4 6.437376 0 0
7:55 pm 19:55 Cloudy with Mist and Fog 26 -3.1 24 -4.3 92 92 E 7 11 30.12 1020 4 6.437376 0 0
8:15 pm 20:15 Cloudy with Mist and Fog 26 -3.1 24 -4.5 90 90 ESE 9 15 30.12 1020 5 8.04672 0 0
8:35 pm 20:35 Cloudy with Mist and Fog 26 -3.1 24 -4.5 90 90 ESE 7 11 30.12 1020 5 8.04672 0 0
8:55 pm 20:55 Cloudy with Mist and Fog 26 -3.1 24 -4.4 91 91 E 5 7 30.12 1020 5 8.04672 0 0
9:15 pm 21:15 Cloudy with Mist and Fog 27 -3 24 -4.3 91 91 ESE 5 7 30.12 1020 5 8.04672 0 0
9:35 pm 21:35 Cloudy with Mist and Fog 27 -3 24 -4.2 92 92 ESE 5 7 30.12 1020 4 6.437376 0 0
9:55 pm 21:55 Cloudy with Mist and Fog 27 -3 24 -4.3 91 91 ENE 5 7 30.12 1020 4 6.437376 0 0
10:15 pm 22:15 Cloudy with Mist and Fog 27 -3 24 -4.3 91 91 ESE 6 9 30.12 1020 4 6.437376 0 0
10:35 pm 22:35 Cloudy with Mist and Fog 27 -3 24 -4.3 91 91 E 5 7 30.12 1020 4 6.437376 0 0
10:55 pm 22:55 Cloudy with Mist and Fog 26 -3.1 24 -4.3 92 92 E 3 6 30.12 1020 4 6.437376 0 0
11:15 pm 23:15 Cloudy with Mist and Fog 27 -3 24 -4.2 92 92 Calm 30.12 1020 4 6.437376 0 0
11:35 pm 23:35 Cloudy with Mist and Fog 27 -3 24 -4.3 91 91 SE 5 7 30.12 1020 4 6.437376 0 0
11:55 pm 23:55 Cloudy with Mist and Fog 26 -3.2 24 -4.3 92 92 SE 9 15 30.12 1020 3 4.828032 0 0

Powered by AerisWeather